RYR5YP LOWW-EPKK

Flight info

Callsign RYR5YP
Flight time 0h 43m
Altitude 29000
Route LEDVA3C/29 LEDVA DCT NETIR
Aircraft B738/M-SDE2E3FGHIRWXY/LB1

Departure

Time 2026-04-25 18:53
Airport Vienna International Airport (LOWW)

Arrival

Time 2026-04-25 19:36
Airport Kraków John Paul II International Airport (EPKK)
Time Latitude Longitude Altitude Speed Heading
2026-04-25 18:13 48.12048 16.55450 618 ft 0 kts 295°
2026-04-25 18:43 48.12055 16.55430 613 ft 5 kts 295°
2026-04-25 18:43 48.12053 16.55384 614 ft 6 kts 228°
2026-04-25 18:43 48.11995 16.55336 613 ft 13 kts 205°
2026-04-25 18:44 48.11919 16.55339 611 ft 10 kts 119°
2026-04-25 18:44 48.11879 16.55425 612 ft 11 kts 157°
2026-04-25 18:44 48.11802 16.55455 620 ft 14 kts 125°
2026-04-25 18:44 48.11745 16.55630 619 ft 26 kts 116°
2026-04-25 18:45 48.11690 16.55800 611 ft 27 kts 116°
2026-04-25 18:45 48.11583 16.56127 614 ft 25 kts 116°
2026-04-25 18:45 48.11513 16.56342 615 ft 22 kts 116°
2026-04-25 18:45 48.11446 16.56548 612 ft 22 kts 116°
2026-04-25 18:46 48.11380 16.56750 618 ft 22 kts 116°
2026-04-25 18:46 48.11334 16.56892 621 ft 23 kts 116°
2026-04-25 18:46 48.11261 16.57116 617 ft 24 kts 116°
2026-04-25 18:46 48.11167 16.57402 611 ft 18 kts 115°
2026-04-25 18:47 48.11144 16.57474 617 ft 0 kts 116°
2026-04-25 18:47 48.11144 16.57475 618 ft 1 kts 116°
2026-04-25 18:47 48.11127 16.57523 609 ft 8 kts 124°
2026-04-25 18:47 48.11064 16.57516 618 ft 5 kts 206°
2026-04-25 18:48 48.11063 16.57515 618 ft 0 kts 206°
2026-04-25 18:51 48.11062 16.57515 617 ft 1 kts 206°
2026-04-25 18:51 48.11015 16.57482 622 ft 11 kts 206°
2026-04-25 18:51 48.10956 16.57409 620 ft 11 kts 266°
2026-04-25 18:52 48.10981 16.57328 618 ft 0 kts 295°
2026-04-25 18:52 48.10983 16.57321 617 ft 5 kts 295°
2026-04-25 18:52 48.11093 16.56983 617 ft 79 kts 296°
2026-04-25 18:53 48.11452 16.55878 659 ft 150 kts 295°
2026-04-25 18:53 48.11952 16.54368 1407 ft 168 kts 295°
2026-04-25 18:53 48.12452 16.52814 2554 ft 161 kts 291°
2026-04-25 18:53 48.12559 16.51162 3210 ft 170 kts 260°
2026-04-25 18:54 48.11664 16.47695 4126 ft 190 kts 257°
2026-04-25 18:54 48.11462 16.45816 5129 ft 180 kts 277°
2026-04-25 18:54 48.11668 16.43975 6098 ft 179 kts 285°
2026-04-25 18:55 48.11947 16.42089 6797 ft 194 kts 284°
2026-04-25 18:55 48.12238 16.40059 7248 ft 211 kts 283°
2026-04-25 18:55 48.12512 16.37867 7932 ft 216 kts 282°
2026-04-25 18:55 48.12774 16.35613 8668 ft 226 kts 281°
2026-04-25 18:56 48.13038 16.33220 9342 ft 240 kts 280°
2026-04-25 18:56 48.13307 16.30704 10117 ft 248 kts 280°
2026-04-25 18:56 48.13642 16.28178 11039 ft 247 kts 290°
2026-04-25 18:56 48.14625 16.26125 12056 ft 245 kts 320°
2026-04-25 18:57 48.16177 16.25109 13161 ft 245 kts 345°
2026-04-25 18:57 48.17851 16.25053 14198 ft 247 kts
2026-04-25 18:57 48.19572 16.25914 14550 ft 280 kts 23°
2026-04-25 18:57 48.20748 16.26953 14710 ft 300 kts 27°
2026-04-25 18:58 48.23207 16.29356 14977 ft 336 kts 29°
2026-04-25 18:58 48.27285 16.33469 16062 ft 361 kts 30°
2026-04-25 18:58 48.29373 16.35571 16921 ft 363 kts 29°
2026-04-25 18:59 48.33687 16.39867 17980 ft 388 kts 29°
2026-04-25 18:59 48.38289 16.44420 18972 ft 405 kts 29°
2026-04-25 19:00 48.43028 16.49119 20275 ft 411 kts 28°
2026-04-25 19:00 48.45428 16.51500 20875 ft 415 kts 28°
2026-04-25 19:01 48.50281 16.56319 22062 ft 424 kts 28°
2026-04-25 19:01 48.52748 16.58774 22668 ft 427 kts 28°
2026-04-25 19:01 48.55245 16.61261 23239 ft 431 kts 28°
2026-04-25 19:01 48.57764 16.63773 23742 ft 436 kts 28°
2026-04-25 19:02 48.62850 16.68857 24736 ft 441 kts 28°
2026-04-25 19:02 48.65421 16.71431 25208 ft 444 kts 28°
2026-04-25 19:02 48.67973 16.73988 25650 ft 447 kts 28°
2026-04-25 19:03 48.72275 16.78516 26453 ft 454 kts 34°
2026-04-25 19:03 48.75218 16.83069 27312 ft 459 kts 46°
2026-04-25 19:03 48.77193 16.86847 28018 ft 456 kts 47°
2026-04-25 19:04 48.81054 16.94472 28962 ft 457 kts 48°
2026-04-25 19:04 48.82979 16.98267 28954 ft 457 kts 47°
2026-04-25 19:05 48.90739 17.13400 28954 ft 454 kts 47°
2026-04-25 19:06 48.94618 17.20939 28959 ft 455 kts 47°
2026-04-25 19:06 49.00451 17.32322 28952 ft 454 kts 47°
2026-04-25 19:07 49.06235 17.43664 28959 ft 453 kts 47°
2026-04-25 19:08 49.12025 17.55064 28965 ft 452 kts 47°
2026-04-25 19:09 49.19069 17.69000 28971 ft 452 kts 47°
2026-04-25 19:10 49.25448 17.81683 28968 ft 452 kts 47°
2026-04-25 19:10 49.29280 17.89330 28963 ft 453 kts 47°
2026-04-25 19:11 49.33093 17.96964 28976 ft 453 kts 47°
2026-04-25 19:11 49.36923 18.04651 28958 ft 454 kts 47°
2026-04-25 19:12 49.40757 18.12368 28738 ft 457 kts 48°
2026-04-25 19:12 49.42678 18.16243 28325 ft 455 kts 48°
2026-04-25 19:12 49.44595 18.20119 27865 ft 454 kts 48°
2026-04-25 19:12 49.46479 18.23932 27439 ft 454 kts 48°
2026-04-25 19:13 49.48387 18.27798 26995 ft 456 kts 48°
2026-04-25 19:13 49.50314 18.31708 26632 ft 456 kts 48°
2026-04-25 19:13 49.52232 18.35606 26256 ft 457 kts 48°
2026-04-25 19:13 49.54149 18.39508 25806 ft 457 kts 48°
2026-04-25 19:14 49.56069 18.43422 25390 ft 455 kts 48°
2026-04-25 19:14 49.57325 18.45989 25096 ft 452 kts 48°
2026-04-25 19:14 49.59803 18.51059 24526 ft 446 kts 48°
2026-04-25 19:14 49.61668 18.54878 24086 ft 441 kts 48°
2026-04-25 19:15 49.63505 18.58643 23523 ft 438 kts 48°
2026-04-25 19:15 49.65327 18.62382 23071 ft 434 kts 48°
2026-04-25 19:15 49.67108 18.66039 22982 ft 436 kts 48°
2026-04-25 19:15 49.68920 18.69877 22943 ft 446 kts 52°
2026-04-25 19:16 49.70392 18.74098 22948 ft 450 kts 63°
2026-04-25 19:16 49.71536 18.78612 22944 ft 449 kts 65°
2026-04-25 19:16 49.72622 18.83149 22943 ft 450 kts 66°
2026-04-25 19:16 49.73695 18.87691 22936 ft 451 kts 66°
2026-04-25 19:17 49.74776 18.92240 22924 ft 451 kts 65°
2026-04-25 19:17 49.75853 18.96728 22910 ft 450 kts 65°
2026-04-25 19:17 49.76952 19.01267 22932 ft 450 kts 65°
2026-04-25 19:17 49.78059 19.05815 22910 ft 451 kts 65°
2026-04-25 19:18 49.79165 19.10353 22935 ft 450 kts 65°
2026-04-25 19:18 49.80272 19.14893 22910 ft 450 kts 65°
2026-04-25 19:18 49.81376 19.19432 22929 ft 451 kts 65°
2026-04-25 19:18 49.82472 19.23944 22931 ft 452 kts 65°
2026-04-25 19:19 49.83555 19.28413 22908 ft 452 kts 65°
2026-04-25 19:19 49.84622 19.32836 22838 ft 445 kts 65°
2026-04-25 19:19 49.85697 19.37309 22351 ft 439 kts 65°
2026-04-25 19:19 49.86404 19.40247 21917 ft 437 kts 65°
2026-04-25 19:20 49.87815 19.46118 20884 ft 438 kts 65°
2026-04-25 19:20 49.88878 19.50551 20229 ft 435 kts 66°
2026-04-25 19:20 49.89883 19.54754 19687 ft 432 kts 66°
2026-04-25 19:20 49.90914 19.59077 19148 ft 427 kts 66°
2026-04-25 19:21 49.91950 19.63428 18570 ft 424 kts 66°
2026-04-25 19:21 49.93977 19.71966 17355 ft 418 kts 66°
2026-04-25 19:21 49.94965 19.76138 16773 ft 415 kts 66°
2026-04-25 19:22 49.95952 19.80316 16193 ft 412 kts 66°
2026-04-25 19:22 49.96936 19.84486 15775 ft 405 kts 66°
2026-04-25 19:22 49.98788 19.92380 15404 ft 381 kts 66°
2026-04-25 19:23 49.99697 19.96248 14951 ft 379 kts 66°
2026-04-25 19:23 50.01500 20.03934 14024 ft 376 kts 66°
2026-04-25 19:23 50.02392 20.07758 13582 ft 374 kts 66°
2026-04-25 19:24 50.03263 20.11504 13160 ft 370 kts 67°
2026-04-25 19:24 50.04039 20.15313 12696 ft 367 kts 65°
2026-04-25 19:24 50.07126 20.21071 11858 ft 336 kts 21°
2026-04-25 19:25 50.11385 20.22517 11253 ft 303 kts 349°
2026-04-25 19:25 50.13469 20.22156 10818 ft 301 kts 347°
2026-04-25 19:25 50.15535 20.21738 10400 ft 299 kts 346°
2026-04-25 19:26 50.17591 20.21312 10037 ft 296 kts 346°
2026-04-25 19:26 50.19604 20.20891 9664 ft 295 kts 346°
2026-04-25 19:26 50.21632 20.20465 9250 ft 293 kts 346°
2026-04-25 19:26 50.23649 20.20044 8845 ft 291 kts 346°
2026-04-25 19:27 50.25653 20.19627 8435 ft 290 kts 346°
2026-04-25 19:27 50.26976 20.19354 8167 ft 288 kts 346°
2026-04-25 19:27 50.29618 20.18776 7668 ft 282 kts 341°
2026-04-25 19:27 50.31246 20.17392 7406 ft 264 kts 311°
2026-04-25 19:28 50.32202 20.15125 7175 ft 253 kts 292°
2026-04-25 19:28 50.32633 20.12488 6926 ft 248 kts 275°
2026-04-25 19:28 50.32485 20.09822 6678 ft 247 kts 258°
2026-04-25 19:28 50.31756 20.07414 6430 ft 245 kts 239°
2026-04-25 19:29 50.30545 20.05605 6176 ft 245 kts 220°
2026-04-25 19:29 50.28989 20.04501 5913 ft 246 kts 204°
2026-04-25 19:29 50.27274 20.04217 5627 ft 252 kts 181°
2026-04-25 19:29 50.25558 20.04697 5398 ft 249 kts 176°
2026-04-25 19:30 50.23856 20.05250 5145 ft 249 kts 175°
2026-04-25 19:30 50.22160 20.05808 4897 ft 249 kts 175°
2026-04-25 19:30 50.20488 20.06356 4654 ft 248 kts 175°
2026-04-25 19:30 50.18820 20.06904 4377 ft 242 kts 175°
2026-04-25 19:31 50.17190 20.07436 4124 ft 237 kts 175°
2026-04-25 19:31 50.15591 20.07957 4022 ft 235 kts 176°
2026-04-25 19:31 50.13992 20.08308 3975 ft 225 kts 195°
2026-04-25 19:31 50.12702 20.07374 3975 ft 193 kts 236°
2026-04-25 19:32 50.12084 20.05676 3998 ft 173 kts 250°
2026-04-25 19:32 50.11623 20.04005 3878 ft 165 kts 255°
2026-04-25 19:32 50.11240 20.02318 3666 ft 164 kts 255°
2026-04-25 19:32 50.11119 20.01753 3588 ft 163 kts 256°
2026-04-25 19:33 50.10645 19.98959 3251 ft 159 kts 261°
2026-04-25 19:33 50.10401 19.97270 3043 ft 159 kts 260°
2026-04-25 19:33 50.10164 19.95599 2821 ft 158 kts 261°
2026-04-25 19:33 50.09931 19.93931 2613 ft 157 kts 262°
2026-04-25 19:34 50.09697 19.92264 2423 ft 158 kts 262°
2026-04-25 19:34 50.09462 19.90585 2191 ft 156 kts 261°
2026-04-25 19:34 50.09235 19.88975 1977 ft 148 kts 262°
2026-04-25 19:34 50.09024 19.87457 1786 ft 141 kts 260°
2026-04-25 19:35 50.08824 19.86037 1647 ft 129 kts 259°
2026-04-25 19:35 50.08637 19.84695 1432 ft 127 kts 258°
2026-04-25 19:35 50.08454 19.83371 1261 ft 124 kts 256°
2026-04-25 19:35 50.08260 19.82009 1080 ft 133 kts 256°
2026-04-25 19:36 50.08067 19.80620 909 ft 130 kts 257°
2026-04-25 19:36 50.07880 19.79263 783 ft 122 kts 257°
2026-04-25 19:36 50.07736 19.78214 778 ft 69 kts 257°
2026-04-25 19:36 50.07680 19.77806 776 ft 17 kts 258°
2026-04-25 19:37 50.07637 19.77507 778 ft 35 kts 257°
2026-04-25 19:37 50.07587 19.77231 781 ft 12 kts 228°
2026-04-25 19:37 50.07522 19.77223 779 ft 10 kts 171°
2026-04-25 19:37 50.07454 19.77229 779 ft 13 kts 182°
2026-04-25 19:38 50.07360 19.77239 779 ft 10 kts 124°
2026-04-25 19:38 50.07362 19.77334 779 ft 9 kts 75°
2026-04-25 19:38 50.07375 19.77430 779 ft 10 kts 79°
2026-04-25 19:38 50.07393 19.77566 779 ft 16 kts 78°
2026-04-25 19:39 50.07420 19.77761 779 ft 21 kts 78°
2026-04-25 19:39 50.07452 19.77986 779 ft 21 kts 78°
2026-04-25 19:39 50.07482 19.78209 779 ft 22 kts 78°
2026-04-25 19:39 50.07518 19.78466 779 ft 26 kts 78°
2026-04-25 19:40 50.07557 19.78744 779 ft 26 kts 78°
2026-04-25 19:40 50.07593 19.79004 779 ft 24 kts 78°
2026-04-25 19:40 50.07627 19.79248 779 ft 23 kts 77°
2026-04-25 19:40 50.07660 19.79483 779 ft 23 kts 77°
2026-04-25 19:41 50.07690 19.79667 779 ft 16 kts 77°
2026-04-25 19:41 50.07711 19.79823 779 ft 3 kts 78°
2026-04-25 19:41 50.07709 19.79827 779 ft 1 kts 110°
2026-04-25 19:41 50.07706 19.79828 779 ft 1 kts 142°
2026-04-25 19:42 50.07623 19.79893 779 ft 12 kts 163°
2026-04-25 19:42 50.07548 19.79919 779 ft 7 kts 168°
2026-04-25 19:42 50.07534 19.79925 779 ft 2 kts 165°
2026-04-25 19:42 50.07515 19.79932 779 ft 7 kts 168°
2026-04-25 19:43 50.07457 19.79949 779 ft 11 kts 169°
2026-04-25 19:43 50.07441 19.79954 779 ft 0 kts 167°
2026-04-25 19:44 50.07427 19.79960 779 ft 5 kts 163°
2026-04-25 19:44 50.07374 19.79982 779 ft 10 kts 167°
2026-04-25 19:45 50.07325 19.79999 779 ft 2 kts 167°
2026-04-25 19:45 50.07313 19.80003 779 ft 0 kts 167°